Home > Weather > Medina > Past weeks

Flag for Saudi Arabia Past Weather in Medina, Saudi Arabia — Yesterday and Last 2 Weeks

Now
104 °F

Sunny.


Feels Like: 98 °F
Forecast: 78 / 110 °F
Wind: 7 mph from Northwest

Location: Madinah

Current Time: Aug 24, 2016 at 11:56:13 AM

Latest Report: Aug 24, 2016 at 11:00 AM


Visibility: 10 mi

Pressure: 29.80 "Hg (27.89 "Hg at 606m altitude)

Humidity: 6%

Dew Point: 25 °F

Location of MedinaLocation

Past Weather in Medina — Graph

°F

Medina Temperature Yesterday

Maximum temperature yesterday: 109 °F (at 2:00 PM)
Minimum temperature yesterday: 88 °F (at 4:00 AM)
Average temperature yesterday: 100 °F

High & Low Weather Summary for the Past Weeks

 TemperatureHumidityPressure
High115 °F (Aug 14, 3:00 PM)30% (Aug 9, 11:00 PM)29.92 "Hg (Aug 9, 11:00 PM)
Low82 °F (Aug 19, 6:00 AM)1% (Aug 14, 4:00 PM)29.68 "Hg (Aug 9, 4:00 PM)
Average100 °F11%29.81 "Hg
* Reported Aug 9 10:00 AM — Aug 24 10:00 AM, Medina, Weather by CustomWeather, © 2016

Note: Actual official high and low records may vary slightly from our data, if they occured in-between our weather recording intervals... More about our weather records

Advertising

Medina Weather History for the Previous 24 Hours

Scroll right to see more
 ConditionsComfort  
Time TempWeatherWind HumidityBarometerVisibility
10:00 AM
Wed, Aug 24
100 °FSunny.6 mph8%29.83 "Hg10 mi
9:00 AM97 °FSunny.6 mph11%29.83 "Hg10 mi
8:00 AM93 °FSunny.8 mph14%29.83 "Hg10 mi
7:00 AM91 °FSunny.8 mph17%29.83 "Hg10 mi
6:00 AM91 °FSunny.3 mph14%29.80 "Hg10 mi
5:00 AM93 °FClear.3 mph11%29.80 "Hg10 mi
4:00 AM95 °FClear.8 mph9%29.80 "Hg10 mi
3:00 AM95 °FClear.7 mph10%29.80 "Hg10 mi
2:00 AM97 °FClear.5 mph7%29.80 "Hg10 mi
1:00 AM99 °FClear.7 mph7%29.80 "Hg10 mi
12:00 AM100 °FClear.12 mph6%29.80 "Hg10 mi
11:00 PM
Tue, Aug 23
102 °FClear.10 mph5%29.80 "Hg10 mi
10:00 PM102 °FClear.16 mph6%29.83 "Hg10 mi
9:00 PM104 °FClear.14 mph5%29.80 "Hg10 mi
8:00 PM104 °FClear.13 mph6%29.80 "Hg10 mi
7:00 PM106 °FClear.14 mph6%29.77 "Hg10 mi
6:00 PM108 °FPassing clouds.12 mph5%29.77 "HgN/A
5:00 PM108 °FPassing clouds.15 mph4%29.77 "HgN/A
4:00 PM109 °FPassing clouds.12 mph4%29.77 "HgN/A
3:00 PM109 °FScattered clouds.12 mph4%29.77 "HgN/A
2:00 PM109 °FPassing clouds.12 mph4%29.80 "HgN/A
1:00 PM106 °FScattered clouds.10 mph5%29.83 "HgN/A
12:00 PM106 °FSunny.9 mph6%29.83 "Hg10 mi
11:00 AM100 °FSunny.7 mph7%29.86 "Hg10 mi
Weather by CustomWeather, © 2016

See weather overviewHow to use our weather pages